PST,Max TemperatureF,Mean TemperatureF,Min TemperatureF,Max Dew PointF,MeanDew PointF,Min DewpointF,Max Humidity, Mean Humidity, Min Humidity, Max Sea Level PressureIn, Mean Sea Level PressureIn, Min Sea Level PressureIn, Max VisibilityMiles, Mean VisibilityMiles, Min VisibilityMiles, Max Wind SpeedMPH, Mean Wind SpeedMPH, Max Gust SpeedMPH,PrecipitationIn, CloudCover, Events, WindDirDegrees
2013-1-1,50,40,30,36,32,30,100,81,47,30.30,30.25,30.21,10,10,5,9,3,,0.00,1,,360
2013-1-2,51,40,28,34,31,27,100,80,47,30.27,30.21,30.15,10,10,10,10,4,,0.00,0,,59
2013-1-3,51,40,28,37,32,27,100,85,50,30.28,30.23,30.19,10,10,10,8,2,,0.00,1,,34
2013-1-4,53,40,28,41,34,28,100,85,54,30.31,30.25,30.20,10,10,5,6,1,,0.00,0,,84
2013-1-5,51,42,32,43,38,32,100,88,62,30.28,30.20,30.11,10,8,4,10,2,,0.01,3,,337
2013-1-6,50,42,33,43,41,34,100,91,76,30.19,30.14,30.10,10,6,1,9,4,,0.03,5,,335
2013-1-7,46,39,32,41,37,32,100,94,76,30.26,30.19,30.14,10,6,0,12,4,,0.01,1,,131
2013-1-8,51,42,33,43,39,32,100,88,67,30.26,30.20,30.15,10,7,3,6,2,,0.01,0,,95
2013-1-9,50,42,35,45,40,36,100,90,76,30.19,30.04,29.92,10,7,3,15,4,,0.00,2,,166
2013-1-10,48,39,30,37,32,28,100,84,50,30.15,30.09,30.02,10,9,0,12,3,,0.00,1,,49
2013-1-11,48,38,28,32,29,27,100,80,43,30.24,30.17,30.13,10,10,7,7,2,,0.00,2,,91
2013-1-12,42,34,26,30,26,19,93,75,39,30.24,30.19,30.15,10,10,10,8,3,,0.00,0,,6
2013-1-13,44,34,23,28,23,14,93,72,41,30.28,30.22,30.17,10,10,10,16,3,,0.00,0,,338
2013-1-14,48,36,24,28,21,14,87,59,29,30.41,30.34,30.22,10,10,10,21,8,,0.00,0,,354
2013-1-15,50,39,28,34,29,25,100,76,47,30.51,30.45,30.40,10,10,7,9,4,,0.00,0,,77
2013-1-16,53,40,28,36,30,27,100,79,35,30.46,30.37,30.29,10,10,7,7,1,,0.00,0,,38
2013-1-17,55,40,26,34,30,23,100,77,38,30.30,30.24,30.18,10,10,10,6,2,,0.00,0,,57
2013-1-18,59,44,28,36,31,27,100,76,36,30.26,30.20,30.15,10,10,10,7,2,,0.00,0,,16
2013-1-19,60,45,30,36,31,27,93,73,31,30.29,30.22,30.17,10,10,10,7,2,,0.00,0,,24
2013-1-20,60,44,28,37,31,27,100,76,29,30.25,30.20,30.13,10,10,10,9,3,,0.00,0,,62
2013-1-21,60,45,30,39,33,28,100,79,39,30.20,30.16,30.12,10,10,10,7,3,,0.00,0,,74
2013-1-22,59,44,30,41,35,28,100,79,42,30.16,30.09,30.03,10,10,10,9,2,,0.00,0,,77
2013-1-23,59,48,37,46,42,36,100,85,51,30.11,30.05,29.99,10,8,2,12,4,,0.02,4,,11
2013-1-24,55,50,46,52,48,45,100,93,82,30.20,30.14,30.08,10,5,2,13,6,,0.02,8,,327
2013-1-25,64,57,50,54,51,48,100,89,63,30.19,30.12,30.03,10,6,0,8,1,,0.00,6,,316
2013-1-26,59,52,44,52,47,39,100,82,48,30.03,29.97,29.92,10,7,0,16,8,18,0.01,6,,153
2013-1-27,53,42,32,41,36,30,100,78,41,30.16,30.10,30.02,10,10,5,8,4,,0.00,1,,69
2013-1-28,55,42,30,36,33,30,100,77,41,30.26,30.19,30.13,10,10,10,13,3,,0.00,0,,356
2013-1-29,57,44,32,37,35,32,100,75,41,30.34,30.28,30.24,10,10,10,17,4,21,0.00,0,,8
2013-1-30,60,46,33,43,37,32,100,78,45,30.36,30.30,30.26,10,10,10,7,4,,0.00,0,,137
2013-1-31,62,47,32,45,39,32,100,80,48,30.32,30.25,30.20,10,9,0,6,2,,0.00,0,,21